Location: Newark
(49.3000°N, 9.4667°E)
Time: 14:52:11
(UTC+00:00)

S-56A Canister/Altair - Pass Details

Date: 24 May 2019
Orbit: 633 x 2499 km, 38.9° (Epoch: 18 June)

Event Time Altitude Azimuth Distance (km) Brightness Sun altitude
Exits shadow 01:49:53 16° 225° (SW) 2,515 9.5 -12.4°
Maximum altitude 01:55:07 39° 165° (SSE) 1,905 9.2 -11.9°
Drops below altitude 10° 02:04:22 10° 102° (ESE) 4,119 11.6 -11.0°
Sets 02:08:36 0° 96° (E) 5,411 12.4 -10.5°
